Location: Unspecified
(40.7945°N, 0.0000°E)
Time: 06:11:45
(UTC+00:00)

Tiros 1 despin weight - Pass Details

Date: 25 January 2021
Orbit: 593 x 642 km, 48.2° (Epoch: 06 March)

Event Time Altitude Azimuth Distance (km) Brightness Sun altitude
Rises 18:52:26 0° 299° (WNW) 2,855 ? -19.5°
Reaches altitude 10° 18:54:45 10° 302° (WNW) 1,943 ? -20.0°
Maximum altitude 18:59:12 71° 26° (NNE) 630 ? -20.8°
Enters shadow 18:59:51 60° 81° (E) 685 ? -20.9°
